User: anonymous   Login
Location: NJAA Observatory
(40.6819°N, 74.8979°W)
Time: 00:00:12
(UTC-04:00)
Language:

Cosmos 2082 - Orbit

View from above orbital plane
View from above orbital plane
View from above satellite
View from above satellite

Ground track
Ground track

The orbit data is extracted from the following two-line orbital elements,

1 20624U 90046A   16151.82020140 -.00000310  00000-0 -13776-3 0  9997
2 20624  71.0392 294.8596 0017209 252.8078 107.1161 14.14196171343138
Epoch (UTC): 30 May 2016 19:41:05
Eccentricity: 0.0017209
inclination: 71.0392°
perigee height: 832 km
apogee height: 857 km
right ascension of ascending node: 294.8596°
argument of perigee: 252.8078°
revolutions per day: 14.14196171
mean anomaly at epoch: 107.1161°
orbit number at epoch: 34313

The dashed part of the orbit path shows where the satellite is in the earth's shadow,  

DLR